Weather History for Weatherford, OK

Change the Weather History Date:

Saturday, August 3, 2013

  Actual Average (KJWG) Record (KJWG)
Temperature  
Mean Temperature 88 °F -  
Max Temperature 98 °F 93 °F 104 °F (1964)
Min Temperature 78 °F 68 °F 57 °F (1973)
Cooling Degree Days 23    
Growing Degree Days 38 (Base 50)    
Moisture  
Dew Point 65 °F    
Average Humidity 50    
Maximum Humidity 66    
Minimum Humidity 30    
Precipitation  
Precipitation 0.00 in - - ()
Sea Level Pressure  
Sea Level Pressure 29.95 in    
Wind  
Wind Speed 11 mph (SSE)    
Max Wind Speed 20 mph    
Max Gust Speed 25 mph    
Visibility 10 miles    
Events Rain    
Averages and records for this station are not official NWS values.
T = Trace of Precipitation, MM = Missing Value Source: NWS Daily Summary

Daily Weather History Graph

Daily Weather History Graph

Search for Another Location

Airport:

Trip Planner

Search our weather history database for the weather conditions in past years. The results will help you decide how hot, cold, wet, or windy it might be!

Date:

Astronomy

Aug. 03, 2013 Rise Set
Actual Time 6:44 AM CDT 8:36 PM CDT
Civil Twilight 6:16 AM CDT 9:04 PM CDT
Nautical Twilight 5:43 AM CDT 9:37 PM CDT
Astronomical Twilight 5:07 AM CDT 10:13 PM CDT
Moon 3:56 AM CDT (8/3) 6:18 PM CDT (8/3)
Length of Visible Light 14h 47m
Length of Day
13h 51m
Waning Crescent, 9% of the Moon is Illuminated
Aug 3
Waning Crescent
Aug 6
New
Aug 14
First Quarter
Aug 20
Full
Aug 28
Last Quarter

Hourly Weather History & Observations

Time (CDT) Temp. Heat Index Dew Point Humidity Pressure Visibility Wind Dir Wind Speed Gust Speed Precip Events Conditions
12:15 AM 84.2 °F 86.6 °F 66.2 °F 55% 29.89 in 10.0 mi South 11.5 mph - N/A   Clear
12:35 AM 84.2 °F 86.6 °F 66.2 °F 55% 29.89 in 10.0 mi South 11.5 mph - N/A   Clear
12:55 AM 86.0 °F 88.2 °F 66.2 °F 51% 29.89 in 10.0 mi South 12.7 mph 17.3 mph N/A   Clear
1:15 AM 84.2 °F 85.6 °F 64.4 °F 51% 29.89 in 10.0 mi South 11.5 mph - N/A   Clear
1:35 AM 82.4 °F 83.9 °F 64.4 °F 54% 29.89 in 10.0 mi South 11.5 mph - N/A   Clear
1:55 AM 84.2 °F 85.6 °F 64.4 °F 51% 29.89 in 10.0 mi South 13.8 mph 18.4 mph N/A   Clear
2:15 AM 82.4 °F 83.9 °F 64.4 °F 54% 29.90 in 10.0 mi South 9.2 mph - N/A   Clear
2:35 AM 82.4 °F 83.9 °F 64.4 °F 54% 29.91 in 10.0 mi South 8.1 mph - N/A   Clear
2:55 AM 82.4 °F 83.9 °F 64.4 °F 54% 29.91 in 10.0 mi SSW 9.2 mph - N/A   Clear
3:15 AM 82.4 °F 83.9 °F 64.4 °F 54% 29.90 in 10.0 mi SSW 10.4 mph - N/A   Clear
3:35 AM 82.4 °F 83.4 °F 62.6 °F 51% 29.90 in 10.0 mi SSW 10.4 mph - N/A   Clear
3:55 AM 82.4 °F 83.4 °F 62.6 °F 51% 29.90 in 10.0 mi SSW 10.4 mph 16.1 mph N/A   Clear
4:15 AM 80.6 °F 82.3 °F 64.4 °F 58% 29.90 in 10.0 mi South 10.4 mph 16.1 mph N/A   Drizzle
4:35 AM 78.8 °F - 64.4 °F 61% 29.91 in 10.0 mi SSW 9.2 mph - N/A Rain Light Rain
4:55 AM 80.6 °F 82.3 °F 64.4 °F 58% 29.90 in 10.0 mi SSW 11.5 mph 17.3 mph N/A   Overcast
5:15 AM 80.6 °F 82.3 °F 64.4 °F 58% 29.91 in 10.0 mi South 9.2 mph - N/A   Scattered Clouds
5:35 AM 80.6 °F 81.8 °F 62.6 °F 54% 29.91 in 10.0 mi South 9.2 mph - N/A   Clear
5:55 AM 80.6 °F 82.3 °F 64.4 °F 58% 29.92 in 10.0 mi South 9.2 mph - N/A   Clear
6:15 AM 80.6 °F 81.8 °F 62.6 °F 54% 29.93 in 10.0 mi ESE 3.5 mph - N/A   Clear
6:35 AM 78.8 °F - 64.4 °F 61% 29.95 in 10.0 mi NE 10.4 mph - N/A   Clear
6:55 AM 80.6 °F 81.8 °F 62.6 °F 54% 29.96 in 10.0 mi SSE 6.9 mph - N/A   Clear
7:15 AM 78.8 °F - 64.4 °F 61% 29.96 in 10.0 mi East 5.8 mph - N/A   Scattered Clouds
7:35 AM 78.8 °F - 64.4 °F 61% 29.96 in 10.0 mi SSE 8.1 mph - N/A   Mostly Cloudy
7:55 AM 78.8 °F - 64.4 °F 61% 29.96 in 10.0 mi Calm Calm - N/A   Scattered Clouds
8:15 AM 78.8 °F - 64.4 °F 61% 29.96 in 10.0 mi SSE 4.6 mph - N/A   Clear
8:35 AM 78.8 °F - 64.4 °F 61% 29.96 in 10.0 mi SSE 4.6 mph - N/A   Clear
8:55 AM 80.6 °F 82.3 °F 64.4 °F 58% 29.96 in 10.0 mi SSE 8.1 mph - N/A   Clear
9:15 AM 80.6 °F 82.3 °F 64.4 °F 58% 29.96 in 10.0 mi South 8.1 mph - N/A   Clear
9:35 AM 80.6 °F 82.3 °F 64.4 °F 58% 29.96 in 10.0 mi South 9.2 mph - N/A   Clear
9:55 AM 80.6 °F 82.3 °F 64.4 °F 58% 29.96 in 10.0 mi South 11.5 mph - N/A   Clear
10:15 AM 80.6 °F 82.3 °F 64.4 °F 58% 29.97 in 10.0 mi SSW 5.8 mph - N/A   Clear
10:35 AM 82.4 °F 83.9 °F 64.4 °F 54% 29.97 in 10.0 mi SSW 9.2 mph - N/A   Clear
10:55 AM 86.0 °F 86.6 °F 62.6 °F 45% 29.98 in 10.0 mi South 11.5 mph 17.3 mph N/A   Clear
11:15 AM 87.8 °F 89.4 °F 64.4 °F 46% 29.97 in 10.0 mi South 12.7 mph 16.1 mph N/A   Clear
11:35 AM 89.6 °F 90.1 °F 62.6 °F 40% 29.97 in 10.0 mi SSW 11.5 mph - N/A   Clear
11:55 AM 91.4 °F 92.1 °F 62.6 °F 38% 29.97 in 10.0 mi South 12.7 mph 16.1 mph N/A   Clear
12:15 PM 91.4 °F 92.1 °F 62.6 °F 38% 29.97 in 10.0 mi SSW 8.1 mph 17.3 mph N/A   Clear
12:35 PM 91.4 °F 92.1 °F 62.6 °F 38% 29.97 in 10.0 mi SSW 10.4 mph - N/A   Clear
12:55 PM 95.0 °F 96.0 °F 62.6 °F 34% 29.97 in 10.0 mi South 11.5 mph - N/A   Clear
1:15 PM 95.0 °F 96.0 °F 62.6 °F 34% 29.96 in 10.0 mi South 11.5 mph - N/A   Clear
1:35 PM 96.8 °F 99.0 °F 64.4 °F 34% 29.96 in 10.0 mi South 13.8 mph 21.9 mph N/A   Clear
1:55 PM 96.8 °F 99.0 °F 64.4 °F 34% 29.96 in 10.0 mi South 15.0 mph 19.6 mph N/A   Clear
2:15 PM 96.8 °F 99.0 °F 64.4 °F 34% 29.96 in 10.0 mi South 13.8 mph 18.4 mph N/A   Clear
2:35 PM 96.8 °F 99.0 °F 64.4 °F 34% 29.95 in 10.0 mi South 15.0 mph 20.7 mph N/A   Clear
2:55 PM 96.8 °F 99.0 °F 64.4 °F 34% 29.95 in 10.0 mi South 17.3 mph 21.9 mph N/A   Clear
3:15 PM 98.6 °F 101.0 °F 64.4 °F 32% 29.95 in 10.0 mi South 15.0 mph 21.9 mph N/A   Clear
3:35 PM 98.6 °F 100.0 °F 62.6 °F 30% 29.94 in 10.0 mi South 15.0 mph 21.9 mph N/A   Clear
3:55 PM 98.6 °F 101.0 °F 64.4 °F 32% 29.94 in 10.0 mi SSE 16.1 mph 24.2 mph N/A   Clear
4:15 PM 98.6 °F 101.0 °F 64.4 °F 32% 29.94 in 10.0 mi SSE 12.7 mph 24.2 mph N/A   Clear
4:35 PM 96.8 °F 100.7 °F 66.2 °F 37% 29.93 in 10.0 mi SSE 16.1 mph 20.7 mph N/A   Clear
4:55 PM 96.8 °F 101.8 °F 68.0 °F 39% 29.93 in 10.0 mi SE 19.6 mph 23.0 mph N/A   Clear
5:15 PM 96.8 °F 101.8 °F 68.0 °F 39% 29.93 in 10.0 mi SSE 17.3 mph 21.9 mph N/A   Clear
5:35 PM 96.8 °F 101.8 °F 68.0 °F 39% 29.93 in 10.0 mi SSE 18.4 mph 25.3 mph N/A   Clear
5:55 PM 95.0 °F 99.5 °F 68.0 °F 41% 29.94 in 10.0 mi SSE 19.6 mph 25.3 mph N/A   Clear
6:15 PM 95.0 °F 99.5 °F 68.0 °F 41% 29.94 in 10.0 mi SE 19.6 mph 25.3 mph N/A   Clear
6:35 PM 93.2 °F 97.7 °F 68.0 °F 44% 29.94 in 10.0 mi SSE 19.6 mph 25.3 mph N/A   Clear
6:55 PM 91.4 °F 95.4 °F 68.0 °F 46% 29.94 in 10.0 mi SE 18.4 mph 25.3 mph N/A   Clear
7:15 PM 91.4 °F 95.4 °F 68.0 °F 46% 29.94 in 10.0 mi SSE 18.4 mph - N/A   Clear
7:35 PM 91.4 °F 94.0 °F 66.2 °F 43% 29.95 in 10.0 mi SSE 13.8 mph - N/A   Clear
7:55 PM 89.6 °F 93.4 °F 68.0 °F 49% 29.96 in 10.0 mi SSE 10.4 mph - N/A   Clear
8:15 PM 87.8 °F 91.4 °F 68.0 °F 52% 29.96 in 10.0 mi SE 11.5 mph - N/A   Clear
8:35 PM 87.8 °F 91.4 °F 68.0 °F 52% 29.97 in 10.0 mi SE 11.5 mph - N/A   Clear
8:55 PM 86.0 °F 89.4 °F 68.0 °F 55% 29.98 in 10.0 mi SE 10.4 mph - N/A   Clear
9:15 PM 86.0 °F 89.4 °F 68.0 °F 55% 29.99 in 10.0 mi SSE 9.2 mph - N/A   Clear
9:35 PM 86.0 °F 89.4 °F 68.0 °F 55% 30.00 in 10.0 mi SSE 10.4 mph - N/A   Clear
9:55 PM 84.2 °F 87.3 °F 68.0 °F 58% 30.01 in 10.0 mi SSE 10.4 mph - N/A   Clear
10:15 PM 84.2 °F 87.3 °F 68.0 °F 58% 30.01 in 10.0 mi SE 12.7 mph - N/A   Clear
10:35 PM 82.4 °F 85.4 °F 68.0 °F 62% 30.02 in 10.0 mi SE 9.2 mph - N/A   Clear
10:55 PM 82.4 °F 86.3 °F 69.8 °F 66% 30.03 in 10.0 mi SE 10.4 mph - N/A   Clear
11:15 PM 82.4 °F 86.3 °F 69.8 °F 66% 30.03 in 10.0 mi SE 13.8 mph - N/A   Clear
11:35 PM 82.4 °F 86.3 °F 69.8 °F 66% 30.03 in 10.0 mi SE 15.0 mph 21.9 mph N/A   Clear
11:55 PM 82.4 °F 86.3 °F 69.8 °F 66% 30.02 in 10.0 mi SE 12.7 mph 16.1 mph N/A   Clear